Time,TemperatureF,DewpointF,PressureIn,WindDirection,WindDirectionDegrees,WindSpeedMPH,WindSpeedGustMPH,Humidity,HourlyPrecipIn,Conditions,Clouds,dailyrainin,SoftwareType,DateUTC
2013-05-31 00:02:00,78.0,74.0,29.93,ESE,123,1.0,5.0,88,0.00,,,0.00,,2013-05-31 04:02:00,
2013-05-31 00:12:00,78.0,74.0,29.93,ESE,123,1.0,5.0,88,0.00,,,0.00,,2013-05-31 04:12:00,
2013-05-31 00:22:00,78.0,74.0,29.93,ESE,123,1.0,5.0,88,0.00,,,0.00,,2013-05-31 04:22:00,
2013-05-31 00:33:00,78.0,74.0,29.93,South,181,0.0,2.0,89,0.00,,,0.00,,2013-05-31 04:33:00,
2013-05-31 00:42:00,78.0,74.0,29.93,South,181,0.0,2.0,89,0.00,,,0.00,,2013-05-31 04:42:00,
2013-05-31 00:53:00,77.0,74.0,29.93,SSE,147,2.0,6.0,90,0.00,,,0.00,,2013-05-31 04:53:00,
2013-05-31 01:02:00,77.0,74.0,29.93,SE,144,0.0,5.0,90,0.00,,,0.00,,2013-05-31 05:02:00,
2013-05-31 01:12:00,77.0,74.0,29.93,SE,144,0.0,5.0,90,0.00,,,0.00,,2013-05-31 05:12:00,
2013-05-31 01:22:00,77.0,74.0,29.93,SE,144,0.0,5.0,90,0.00,,,0.00,,2013-05-31 05:22:00,
2013-05-31 01:31:00,77.0,74.0,29.94,ESE,110,1.0,7.0,90,0.00,,,0.00,,2013-05-31 05:31:00,
2013-05-31 01:42:00,77.0,74.0,29.94,ESE,110,1.0,7.0,90,0.00,,,0.00,,2013-05-31 05:42:00,
2013-05-31 01:52:00,77.0,74.0,29.94,ESE,110,1.0,7.0,90,0.00,,,0.00,,2013-05-31 05:52:00,
2013-05-31 02:02:00,77.0,74.0,29.92,SSE,160,1.0,6.0,91,0.00,,,0.00,,2013-05-31 06:02:00,
2013-05-31 02:12:00,77.0,74.0,29.92,SSE,160,1.0,6.0,91,0.00,,,0.00,,2013-05-31 06:12:00,
2013-05-31 02:21:00,77.0,74.0,29.92,SSE,160,1.0,6.0,91,0.00,,,0.00,,2013-05-31 06:21:00,
2013-05-31 02:31:00,77.0,74.0,29.91,SSW,197,2.0,9.0,92,0.00,,,0.00,,2013-05-31 06:31:00,
2013-05-31 02:41:00,77.0,74.0,29.91,SSW,197,2.0,9.0,92,0.00,,,0.00,,2013-05-31 06:41:00,
2013-05-31 02:51:00,77.0,74.0,29.91,SSW,197,2.0,9.0,92,0.00,,,0.00,,2013-05-31 06:51:00,
2013-05-31 03:02:00,76.0,74.0,29.91,SSE,159,5.0,8.0,93,0.00,,,0.00,,2013-05-31 07:02:00,
2013-05-31 03:11:00,76.0,74.0,29.91,SSE,163,2.0,6.0,94,0.00,,,0.00,,2013-05-31 07:11:00,
2013-05-31 03:21:00,76.0,74.0,29.91,SSE,163,2.0,6.0,94,0.00,,,0.00,,2013-05-31 07:21:00,
2013-05-31 03:32:00,76.0,74.0,29.91,South,169,3.0,6.0,95,0.00,,,0.00,,2013-05-31 07:32:00,
2013-05-31 03:41:00,76.0,74.0,29.91,South,169,3.0,6.0,95,0.00,,,0.00,,2013-05-31 07:41:00,
2013-05-31 03:52:00,76.0,74.0,29.90,SSE,161,3.0,7.0,95,0.00,,,0.00,,2013-05-31 07:52:00,
2013-05-31 04:02:00,76.0,74.0,29.90,SSE,158,3.0,7.0,95,0.00,,,0.00,,2013-05-31 08:02:00,
2013-05-31 04:11:00,76.0,74.0,29.90,SSE,158,3.0,7.0,95,0.00,,,0.00,,2013-05-31 08:11:00,
2013-05-31 04:21:00,76.0,74.0,29.90,SSE,165,5.0,9.0,95,0.00,,,0.00,,2013-05-31 08:21:00,
2013-05-31 04:31:00,75.0,74.0,29.89,South,169,5.0,9.0,96,0.00,,,0.00,,2013-05-31 08:31:00,
2013-05-31 04:42:00,75.0,74.0,29.89,South,169,5.0,9.0,96,0.00,,,0.00,,2013-05-31 08:42:00,
2013-05-31 04:51:00,76.0,75.0,29.89,SSE,161,2.0,8.0,96,0.00,,,0.00,,2013-05-31 08:51:00,
2013-05-31 05:01:00,75.0,74.0,29.89,SSW,197,1.0,7.0,96,0.00,,,0.00,,2013-05-31 09:01:00,
2013-05-31 05:11:00,76.0,75.0,29.88,South,178,2.0,8.0,96,0.00,,,0.00,,2013-05-31 09:11:00,
2013-05-31 05:21:00,76.0,75.0,29.88,South,178,2.0,8.0,96,0.00,,,0.00,,2013-05-31 09:21:00,
2013-05-31 05:32:00,76.0,75.0,29.88,South,178,2.0,8.0,96,0.00,,,0.00,,2013-05-31 09:32:00,
2013-05-31 05:43:00,76.0,75.0,29.88,South,178,2.0,8.0,96,0.00,,,0.00,,2013-05-31 09:43:00,
2013-05-31 05:53:00,76.0,75.0,29.90,SE,135,1.0,5.0,96,0.00,,,0.00,,2013-05-31 09:53:00,
2013-05-31 06:02:00,76.0,75.0,29.90,SSE,167,3.0,7.0,96,0.00,,,0.00,,2013-05-31 10:02:00,
2013-05-31 06:12:00,76.0,75.0,29.90,SSE,167,3.0,7.0,96,0.00,,,0.00,,2013-05-31 10:12:00,
2013-05-31 06:22:00,76.0,75.0,29.90,SSE,167,3.0,7.0,96,0.00,,,0.00,,2013-05-31 10:22:00,
2013-05-31 06:33:00,76.0,75.0,29.91,SSE,153,2.0,6.0,96,0.00,,,0.00,,2013-05-31 10:33:00,
2013-05-31 06:42:00,76.0,75.0,29.91,SSE,153,2.0,6.0,96,0.00,,,0.00,,2013-05-31 10:42:00,
2013-05-31 06:52:00,76.0,75.0,29.91,SSE,155,1.0,7.0,96,0.00,,,0.00,,2013-05-31 10:52:00,
2013-05-31 07:02:00,76.0,75.0,29.91,SSE,155,1.0,7.0,96,0.00,,,0.00,,2013-05-31 11:02:00,
2013-05-31 07:11:00,76.0,75.0,29.91,SSE,155,1.0,7.0,96,0.00,,,0.00,,2013-05-31 11:11:00,
2013-05-31 07:22:00,76.0,75.0,29.91,SSE,155,1.0,7.0,96,0.00,,,0.00,,2013-05-31 11:22:00,
2013-05-31 07:32:00,76.0,75.0,29.92,South,171,2.0,6.0,96,0.00,,,0.00,,2013-05-31 11:32:00,
2013-05-31 07:42:00,76.0,75.0,29.92,South,171,2.0,6.0,96,0.00,,,0.00,,2013-05-31 11:42:00,
2013-05-31 07:52:00,76.0,75.0,29.93,SSE,158,3.0,6.0,96,0.00,,,0.00,,2013-05-31 11:52:00,
2013-05-31 08:01:00,77.0,76.0,29.94,ESE,116,2.0,7.0,96,0.00,,,0.00,,2013-05-31 12:01:00,
2013-05-31 08:11:00,77.0,76.0,29.94,ESE,116,2.0,7.0,96,0.00,,,0.00,,2013-05-31 12:11:00,
2013-05-31 08:21:00,77.0,76.0,29.94,ESE,116,2.0,7.0,96,0.00,,,0.00,,2013-05-31 12:21:00,
2013-05-31 08:31:00,78.0,76.0,29.94,SSE,155,5.0,8.0,95,0.00,,,0.00,,2013-05-31 12:31:00,
2013-05-31 08:41:00,78.0,76.0,29.94,SSE,155,5.0,8.0,95,0.00,,,0.00,,2013-05-31 12:41:00,
2013-05-31 08:52:00,78.0,76.0,29.94,South,177,4.0,9.0,95,0.00,,,0.00,,2013-05-31 12:52:00,
2013-05-31 09:01:00,78.0,76.0,29.94,SSE,157,3.0,6.0,94,0.00,,,0.00,,2013-05-31 13:01:00,
2013-05-31 09:11:00,78.0,76.0,29.94,SSE,157,3.0,6.0,94,0.00,,,0.00,,2013-05-31 13:11:00,
2013-05-31 09:21:00,78.0,76.0,29.94,SSE,157,3.0,6.0,94,0.00,,,0.00,,2013-05-31 13:21:00,
2013-05-31 09:32:00,81.0,77.0,29.94,SSE,166,0.0,5.0,88,0.00,,,0.00,,2013-05-31 13:32:00,
2013-05-31 09:42:00,81.0,77.0,29.94,SSE,166,0.0,5.0,88,0.00,,,0.00,,2013-05-31 13:42:00,
2013-05-31 09:52:00,81.0,76.0,29.94,SSW,200,3.0,8.0,86,0.00,,,0.00,,2013-05-31 13:52:00,
2013-05-31 10:02:00,81.0,76.0,29.93,SW,236,1.0,5.0,85,0.00,,,0.00,,2013-05-31 14:02:00,
2013-05-31 10:11:00,81.0,76.0,29.93,SW,236,1.0,5.0,85,0.00,,,0.00,,2013-05-31 14:11:00,
2013-05-31 10:21:00,82.0,76.0,29.93,SSE,165,2.0,8.0,83,0.00,,,0.00,,2013-05-31 14:21:00,
2013-05-31 10:32:00,82.0,76.0,29.93,SSE,165,2.0,8.0,83,0.00,,,0.00,,2013-05-31 14:32:00,
2013-05-31 10:41:00,82.0,76.0,29.93,SSE,165,2.0,8.0,83,0.00,,,0.00,,2013-05-31 14:41:00,
2013-05-31 10:52:00,83.0,78.0,29.93,West,274,0.0,1.0,84,0.00,,,0.00,,2013-05-31 14:52:00,
2013-05-31 11:01:00,83.0,77.0,29.92,West,274,0.0,0.0,83,0.00,,,0.00,,2013-05-31 15:01:00,
2013-05-31 11:11:00,84.0,77.0,29.92,SSW,206,1.0,3.0,79,0.00,,,0.00,,2013-05-31 15:11:00,
2013-05-31 11:21:00,84.0,77.0,29.92,SSW,206,1.0,3.0,79,0.00,,,0.00,,2013-05-31 15:21:00,
2013-05-31 11:33:00,86.0,77.0,29.91,SSE,148,2.0,8.0,74,0.00,,,0.00,,2013-05-31 15:33:00,
2013-05-31 11:43:00,86.0,77.0,29.91,SSE,148,2.0,8.0,74,0.00,,,0.00,,2013-05-31 15:43:00,
2013-05-31 11:53:00,86.0,77.0,29.91,SSE,148,2.0,8.0,74,0.00,,,0.00,,2013-05-31 15:53:00,
2013-05-31 12:03:00,84.0,76.0,29.90,SW,230,0.0,2.0,78,0.00,,,0.00,,2013-05-31 16:03:00,
2013-05-31 12:12:00,84.0,76.0,29.90,WSW,246,0.0,3.0,78,0.00,,,0.00,,2013-05-31 16:12:00,
2013-05-31 12:22:00,84.0,76.0,29.90,WSW,246,0.0,3.0,78,0.00,,,0.00,,2013-05-31 16:22:00,
2013-05-31 12:33:00,85.0,77.0,29.90,SW,216,1.0,5.0,76,0.00,,,0.00,,2013-05-31 16:33:00,
2013-05-31 12:42:00,85.0,77.0,29.90,SW,216,1.0,5.0,76,0.00,,,0.00,,2013-05-31 16:42:00,
2013-05-31 12:52:00,85.0,77.0,29.90,WSW,237,2.0,3.0,77,0.00,,,0.00,,2013-05-31 16:52:00,
2013-05-31 13:02:00,87.0,77.0,29.89,SSW,211,1.0,7.0,73,0.00,,,0.00,,2013-05-31 17:02:00,
2013-05-31 13:12:00,87.0,77.0,29.89,SSW,211,1.0,7.0,73,0.00,,,0.00,,2013-05-31 17:12:00,
2013-05-31 13:22:00,87.0,77.0,29.89,SSW,199,2.0,7.0,72,0.00,,,0.00,,2013-05-31 17:22:00,
2013-05-31 13:32:00,85.0,80.0,29.88,SSE,168,0.0,5.0,85,0.01,,,0.01,,2013-05-31 17:32:00,
2013-05-31 13:42:00,85.0,80.0,29.88,SSE,168,0.0,5.0,85,0.01,,,0.01,,2013-05-31 17:42:00,
2013-05-31 13:52:00,85.0,80.0,29.88,SSE,168,0.0,5.0,85,0.01,,,0.01,,2013-05-31 17:52:00,
2013-05-31 14:01:00,85.0,80.0,29.88,SSE,168,0.0,5.0,85,0.01,,,0.01,,2013-05-31 18:01:00,
2013-05-31 14:11:00,87.0,76.0,29.89,SW,233,1.0,7.0,70,0.02,,,0.02,,2013-05-31 18:11:00,
2013-05-31 14:22:00,87.0,76.0,29.89,SW,233,1.0,7.0,70,0.02,,,0.02,,2013-05-31 18:22:00,
2013-05-31 14:32:00,86.0,76.0,29.88,South,182,1.0,6.0,72,0.01,,,0.02,,2013-05-31 18:32:00,
2013-05-31 14:42:00,86.0,76.0,29.88,South,182,1.0,6.0,72,0.01,,,0.02,,2013-05-31 18:42:00,
2013-05-31 14:52:00,87.0,76.0,29.88,WSW,251,1.0,7.0,70,0.00,,,0.02,,2013-05-31 18:52:00,
2013-05-31 15:02:00,87.0,76.0,29.88,SSW,199,3.0,8.0,69,0.00,,,0.02,,2013-05-31 19:02:00,
2013-05-31 15:10:00,88.0,76.0,29.87,SSW,194,2.0,7.0,67,0.00,,,0.02,,2013-05-31 19:10:00,
2013-05-31 15:11:00,87.0,76.0,29.88,SSW,199,3.0,8.0,69,0.00,,,0.02,,2013-05-31 19:11:00,
2013-05-31 15:22:00,88.0,77.0,29.87,South,181,3.0,8.0,69,0.00,,,0.02,,2013-05-31 19:22:00,
2013-05-31 15:32:00,88.0,76.0,29.87,SSW,194,2.0,7.0,67,0.00,,,0.02,,2013-05-31 19:32:00,
2013-05-31 15:42:00,88.0,76.0,29.87,SSW,194,2.0,7.0,67,0.00,,,0.02,,2013-05-31 19:42:00,
2013-05-31 15:52:00,88.0,76.0,29.87,SSW,194,2.0,7.0,67,0.00,,,0.02,,2013-05-31 19:52:00,
2013-05-31 16:01:00,88.0,76.0,29.87,SSW,194,2.0,7.0,67,0.00,,,0.02,,2013-05-31 20:01:00,
2013-05-31 16:20:00,88.0,76.0,29.85,SW,232,2.0,7.0,67,0.00,,,0.02,,2013-05-31 20:20:00,
2013-05-31 16:22:00,88.0,76.0,29.85,SW,227,1.0,7.0,67,0.00,,,0.02,,2013-05-31 20:22:00,
2013-05-31 16:32:00,88.0,76.0,29.85,SW,232,2.0,7.0,67,0.00,,,0.02,,2013-05-31 20:32:00,
2013-05-31 16:42:00,88.0,76.0,29.85,SW,232,2.0,7.0,67,0.00,,,0.02,,2013-05-31 20:42:00,
2013-05-31 16:52:00,88.0,76.0,29.85,SW,232,2.0,7.0,67,0.00,,,0.02,,2013-05-31 20:52:00,
2013-05-31 17:01:00,88.0,76.0,29.85,SW,232,2.0,7.0,67,0.00,,,0.02,,2013-05-31 21:01:00,
2013-05-31 17:11:00,88.0,76.0,29.85,SW,232,2.0,7.0,67,0.00,,,0.02,,2013-05-31 21:11:00,
2013-05-31 17:33:00,88.0,75.0,29.84,SW,220,2.0,6.0,65,0.00,,,0.02,,2013-05-31 21:33:00,
2013-05-31 17:43:00,88.0,75.0,29.84,SSW,202,2.0,8.0,66,0.00,,,0.02,,2013-05-31 21:43:00,
2013-05-31 17:54:00,88.0,75.0,29.84,SSW,202,2.0,8.0,66,0.00,,,0.02,,2013-05-31 21:54:00,
2013-05-31 18:02:00,88.0,75.0,29.84,SSW,202,2.0,8.0,66,0.00,,,0.02,,2013-05-31 22:02:00,
2013-05-31 18:12:00,87.0,75.0,29.83,SW,231,1.0,7.0,68,0.00,,,0.02,,2013-05-31 22:12:00,
2013-05-31 18:22:00,87.0,75.0,29.83,SW,231,1.0,7.0,68,0.00,,,0.02,,2013-05-31 22:22:00,
2013-05-31 18:33:00,86.0,75.0,29.83,SSE,151,1.0,6.0,71,0.00,,,0.02,,2013-05-31 22:33:00,
2013-05-31 18:42:00,86.0,76.0,29.83,South,191,0.0,6.0,72,0.00,,,0.02,,2013-05-31 22:42:00,
2013-05-31 18:52:00,86.0,76.0,29.83,South,191,0.0,6.0,72,0.00,,,0.02,,2013-05-31 22:52:00,
2013-05-31 19:02:00,86.0,76.0,29.83,South,172,1.0,7.0,72,0.00,,,0.02,,2013-05-31 23:02:00,
2013-05-31 19:12:00,86.0,76.0,29.83,SSW,198,2.0,6.0,72,0.00,,,0.02,,2013-05-31 23:12:00,
2013-05-31 19:21:00,86.0,76.0,29.83,SSW,198,2.0,6.0,72,0.00,,,0.02,,2013-05-31 23:21:00,
2013-05-31 19:32:00,85.0,75.0,29.83,WSW,253,2.0,9.0,73,0.00,,,0.02,,2013-05-31 23:32:00,
2013-05-31 19:42:00,85.0,76.0,29.83,SW,222,1.0,7.0,74,0.00,,,0.02,,2013-05-31 23:42:00,
2013-05-31 19:52:00,85.0,76.0,29.83,SW,222,1.0,7.0,74,0.00,,,0.02,,2013-05-31 23:52:00,
2013-05-31 20:01:00,85.0,76.0,29.83,SW,222,1.0,7.0,74,0.00,,,0.02,,2013-06-01 00:01:00,
2013-05-31 20:11:00,85.0,76.0,29.83,SW,222,1.0,7.0,74,0.00,,,0.02,,2013-06-01 00:11:00,
2013-05-31 20:22:00,85.0,76.0,29.83,SW,222,1.0,7.0,74,0.00,,,0.02,,2013-06-01 00:22:00,
2013-05-31 20:32:00,84.0,76.0,29.85,SSW,213,2.0,6.0,77,0.00,,,0.02,,2013-06-01 00:32:00,
2013-05-31 20:42:00,84.0,76.0,29.85,SSW,213,2.0,6.0,77,0.00,,,0.02,,2013-06-01 00:42:00,
2013-05-31 20:52:00,84.0,76.0,29.85,SSW,213,2.0,6.0,77,0.00,,,0.02,,2013-06-01 00:52:00,
2013-05-31 21:01:00,84.0,76.0,29.85,SSW,213,2.0,6.0,77,0.00,,,0.02,,2013-06-01 01:01:00,
2013-05-31 21:11:00,83.0,76.0,29.86,South,187,2.0,8.0,79,0.00,,,0.02,,2013-06-01 01:11:00,
2013-05-31 21:22:00,83.0,76.0,29.86,South,187,2.0,8.0,79,0.00,,,0.02,,2013-06-01 01:22:00,
2013-05-31 21:32:00,82.0,76.0,29.87,South,184,0.0,6.0,81,0.00,,,0.02,,2013-06-01 01:32:00,
2013-05-31 21:42:00,82.0,76.0,29.87,South,184,0.0,6.0,81,0.00,,,0.02,,2013-06-01 01:42:00,
2013-05-31 21:52:00,82.0,76.0,29.87,South,184,0.0,6.0,81,0.00,,,0.02,,2013-06-01 01:52:00,
2013-05-31 22:01:00,81.0,75.0,29.88,SSE,154,1.0,6.0,83,0.00,,,0.02,,2013-06-01 02:01:00,
2013-05-31 22:11:00,81.0,76.0,29.88,SW,236,2.0,5.0,84,0.00,,,0.02,,2013-06-01 02:11:00,
2013-05-31 22:21:00,81.0,76.0,29.88,SW,236,2.0,5.0,84,0.00,,,0.02,,2013-06-01 02:21:00,
2013-05-31 22:32:00,80.0,75.0,29.88,ESE,123,1.0,6.0,86,0.00,,,0.02,,2013-06-01 02:32:00,
2013-05-31 22:42:00,80.0,76.0,29.88,SE,140,1.0,6.0,87,0.00,,,0.02,,2013-06-01 02:42:00,
2013-05-31 22:51:00,80.0,76.0,29.88,SE,140,1.0,6.0,87,0.00,,,0.02,,2013-06-01 02:51:00,
2013-05-31 23:01:00,80.0,76.0,29.88,SE,137,0.0,6.0,87,0.00,,,0.02,,2013-06-01 03:01:00,
2013-05-31 23:11:00,80.0,76.0,29.88,SE,137,0.0,6.0,87,0.00,,,0.02,,2013-06-01 03:11:00,
2013-05-31 23:21:00,80.0,76.0,29.88,SE,137,0.0,6.0,87,0.00,,,0.02,,2013-06-01 03:21:00,
2013-05-31 23:33:00,79.0,75.0,29.88,South,172,0.0,6.0,89,0.00,,,0.02,,2013-06-01 03:33:00,
2013-05-31 23:43:00,79.0,76.0,29.88,South,169,2.0,5.0,91,0.00,,,0.02,,2013-06-01 03:43:00,
2013-05-31 23:53:00,79.0,76.0,29.88,South,169,2.0,5.0,91,0.00,,,0.02,,2013-06-01 03:53:00,